MPEC 2019-S161 : 2019 SY6
The following Minor Planet Electronic Circular may be linked-to from your own Web pages, but must not otherwise be redistributed electronically.A form allowing access to any MPEC is at the bottom of this page.


M.P.E.C. 2019-S161 Issued 2019 September 30, 02:35 UT The Minor Planet Electronic Circulars contain information on unusual minor planets and routine data on comets. They are published on behalf of Division F of the International Astronomical Union by the Minor Planet Center, Smithsonian Astrophysical Observatory, Cambridge, MA 02138, U.S.A. Prepared using the Tamkin Foundation Computer Network MPC@CFA.HARVARD.EDU URL https://www.minorplanetcenter.net/ ISSN 1523-6714 2019 SY6 Observations: K19S06Y C2019 09 27.48424501 08 09.528+02 53 35.78 19.14GVES161F51 K19S06Y C2019 09 27.49546901 07 55.354+02 50 44.53 19.14GVES161F51 K19S06Y* C2019 09 29.41991 00 35 22.695-04 02 06.61 20.1 wUES161F51 K19S06Y C2019 09 29.43103 00 35 12.673-04 04 05.51 20.1 wUES161F51 K19S06Y C2019 09 29.45323 00 34 52.725-04 08 01.90 20.3 wUES161F51 K19S06Y pC2019 09 29.84930400 29 33.05 -05 16 16.9 20.5 GVES161L01 K19S06Y pC2019 09 29.85050800 29 32.10 -05 16 29.7 20.3 GVES161L01 K19S06Y KC2019 09 29.85170600 29 31.09 -05 16 41.1 20.5 GVES161L01 K19S06Y KC2019 09 29.85264400 29 30.33 -05 16 50.6 20.6 GVES161L01 K19S06Y pC2019 09 29.85410800 29 29.13 -05 17 05.0 20.4 GVES161L01 K19S06Y KC2019 09 29.96655200 27 58.69 -05 35 29.0 19.7 GVES161J95 K19S06Y KC2019 09 29.97148700 27 54.74 -05 36 17.6 19.6 GVES161J95 K19S06Y KC2019 09 29.97819000 27 49.31 -05 37 21.8 19.1 GVES161J95 Observer details: F51 Pan-STARRS 1, Haleakala. Observers J. Bulger, K. Chambers, T. Lowe, E. Magnier, A. Schultz, M. Willman. Measurers S. Chastel, M. Huber, Y. Ramanjooloo, R. Wainscoat, R. Weryk, K. Chambers, T. de Boer, L. Denneau, J. Fairlamb, H. Flewelling, C.-C. Lin, E. Magnier. 1.8-m Ritchey-Chretien + CCD. J95 Great Shefford. Observer P. Birtwhistle. 0.41-m f/6.3 Schmidt-Cassegrain + CCD. L01 Visnjan Observatory, Tican. Observer K. Korlevic. 1.0-m f/2.9 reflector + CCD. Orbital elements: 2019 SY6 Earth MOID = 0.0148 AU Epoch 2019 Apr. 27.0 TT = JDT 2458600.5 Bell M 251.35380 (2000.0) P Q n 1.38155041 Peri. 31.44385 -0.82129198 +0.57039363 a 0.7984080 Node 183.40000 -0.55522649 -0.80373763 e 0.5343590 Incl. 11.10981 -0.13116032 -0.16928359 P 0.71 H 25.1 G 0.15 U 9 Residuals in seconds of arc 190927 F51 0.0 0.0 190929 L01 0.4- 0.5+ 190929 J95 0.0 0.5+ 190927 F51 0.1+ 0.0 190929 L01 0.1+ 0.4- 190929 J95 0.4+ 0.5- 190929 F51 0.1- 0.0 190929 L01 0.3- 0.1+ 190929 J95 0.1- 0.2- 190929 F51 0.1- 0.0 190929 L01 0.2- 0.2- 190929 F51 0.0 0.2+ 190929 L01 0.2- 0.1- Ephemeris: 2019 SY6 a,e,i = 0.80, 0.53, 11 q = 0.3718 Date TT R. A. (2000) Decl. Delta r Elong. Phase V 2019 08 31 09 24 49.8 +33 27 27 0.1988 0.8421 29.4 144.0 28.6 ... 2019 09 15 07 35 53.6 +40 01 51 0.08211 0.9726 64.0 111.7 23.9 ... 2019 09 23 03 21 53.0 +27 02 23 0.04620 1.0302 124.0 53.9 20.5 ... 2019 09 29 00 41 33.8 -02 43 09 0.06664 1.0681 172.7 6.9 19.9 2019 09 30 00 27 32.4 -05 39 03 0.07301 1.0740 171.8 7.7 20.1 2019 10 01 00 15 43.6 -08 04 35 0.07980 1.0798 168.7 10.5 20.4 ... 2019 10 07 23 33 10.3 -16 14 01 0.1258 1.1120 151.6 25.3 22.0 ... 2019 10 15 23 10 40.1 -19 59 24 0.1936 1.1483 137.9 35.6 23.3 ... 2019 10 30 23 01 39.5 -21 14 02 0.3286 1.1971 121.2 45.2 24.8 A. U. Tomatic (C) Copyright 2019 MPC M.P.E.C. 2019-S161


Enter an MPEC number in one of the following forms:
- 1997-B01 (the full form)
- J97B01 (the packed version of the full form)
- B01 (the abbreviated form)